FENGYUN 1C DEB, 37428

Orbit data source: Space-Track

FENGYUN 1C DEB, 37428 is space debris in SSO originally from a launch on Mon, 10 May 1999 UTC launched from the Taiyaun Space Center, China (TSC). Fengyun 1C debris stems from the Chinese weather satellite Fengyun-1C, which was intentionally destroyed by a Chinese anti-satellite missile in 2007. This event dramatically increased the amount of space debris, with thousands of trackable fragments posing hazards to satellites and human spaceflight. The Fengyun 1C debris cloud has become a focal point in discussions about space sustainability and the need for international regulations to prevent the creation of new debris.

Loading next visibility...
Identifier
37428, 1999-025EGW
Orbit
SSO
Country
Flag of CNCN / PRC
Related business
Manufacturer
Unknown
Mission
Spacecraft
Bus & Motor
Unknown
Mass
Unknown
Launch date (UTC)
1999-05-10 (27 years ago)
Launch vehicle
Unknown
Launch site
Taiyaun Space Center, China (TSC)
Object type
Payload
Rocket body
Debris
Shape & HBR
Unknown shape, 0.1 m
Radar Cross Section
Small (<0.1 m²)

Expand to show TLE details & history
Last TLE update: 5 days ago

TLE from 5 days ago
0 FENGYUN 1C DEB
1 37428U 99025EGW 25308.37456716  .00005377  00000-0  19041-2 0  9995
2 37428  97.7239 175.0839 0055149 216.1318 143.6138 14.34038787628863
Epoch: 2025-11-04T08:59Z
TLE epoch observation values (Epoch: 2025-11-04T08:59:22.602Z)
Latitude
-0.00002°
Longitude
-3.62277°
Altitude
813.081 km
Speed
7.43 km/s
True Right ascension
11h 40m 20s
True Declination
0° 00' 00"
Sunlit
Object was in daylight at epoch
Visualization orbit readout
Latitude
Unknown
Longitude
Unknown
Altitude
Unknown
Speed
Unknown
Apparent Right ascension
Unknown
Apparent Declination
Unknown
Sunlit
N/A
Visualization observer readout
Local Sidereal Time
01:22:28
Azimuth
Unknown
Elevation
Unknown
Doppler factor
Unknown
Orbital elements
Apogee altitude
814.808 km
Perigee altitude
735.906 km
Semi-major axis
7,153.494 km
Eccentricity
0.00551
Inclination
97.7239°
RAAN
175.0839°
Arg. of periapsis
216.1318°
True anomaly
143.98662°
Mean anomaly
143.6138°
Eccentric anomaly
143.80042°
Mean motion
3.58728 °/min
Orbital period
100.35 mins
BSTAR
0.0019041
Loading maneuver chart data...
Computing Atmospheric mass density...

Documentation

Showing up to 5 results
|